,,,PA_Meas_PMT16A,,PR_Meas_QMR101_102,,RH_Meas_QMH101,,SR_Meas_QMS101,,TA_Meas_QMH101,,GenWind,,GenWind,
date,time,status,PA,status,PR,status,RH,status,SR,status,TA,status,DirAvg,status,SpdAvg,
2009-11-09, 00:00:04,VALID,998.216,VALID,0,VALID,87.7864,VALID,0,VALID,24.8703,VALID,136,VALID,1.21797,
2009-11-09, 00:01:04,VALID,998.178,VALID,0,VALID,87.5957,VALID,0,VALID,24.8703,VALID,136,VALID,1.04062,
2009-11-09, 00:02:04,VALID,998.164,VALID,0,VALID,87.2905,VALID,0,VALID,24.9093,VALID,136,VALID,1.35195,
2009-11-09, 00:03:04,VALID,998.173,VALID,0,VALID,87.0082,VALID,0,VALID,24.9093,VALID,139,VALID,1.78437,
2009-11-09, 00:04:04,VALID,998.142,VALID,0,VALID,87.2829,VALID,0,VALID,24.9308,VALID,152,VALID,1.79141,
2009-11-09, 00:05:04,VALID,998.11,VALID,0,VALID,87.1532,VALID,0,VALID,24.9679,VALID,151,VALID,1.58711,
2009-11-09, 00:06:04,VALID,998.055,VALID,0,VALID,86.97,VALID,0,VALID,24.9874,VALID,150,VALID,0.926953,
2009-11-09, 00:07:04,VALID,998.059,VALID,0,VALID,87.0082,VALID,0,VALID,25.0088,VALID,153,VALID,1.97422,
2009-11-09, 00:08:04,VALID,998.034,VALID,0,VALID,87.1379,VALID,0,VALID,24.9874,VALID,155,VALID,0.902344,
2009-11-09, 00:09:04,VALID,998.027,VALID,0,VALID,87.2371,VALID,0,VALID,24.9893,VALID,175,VALID,1.43477,
2009-11-09, 00:10:04,VALID,998.044,VALID,0,VALID,87.2218,VALID,0,VALID,24.9484,VALID,169,VALID,1.02969,
2009-11-09, 00:11:04,VALID,998.014,VALID,0,VALID,87.2981,VALID,0,VALID,24.9289,VALID,159,VALID,1.18242,
2009-11-09, 00:12:04,VALID,998.014,VALID,0,VALID,87.2752,VALID,0,VALID,24.9503,VALID,153,VALID,1.23633,
2009-11-09, 00:13:04,VALID,998.001,VALID,0,VALID,87.2829,VALID,0,VALID,24.9289,VALID,142,VALID,1.4418,
2009-11-09, 00:14:04,VALID,997.989,VALID,0,VALID,87.2752,VALID,0,VALID,24.9503,VALID,135,VALID,1.05664,
2009-11-09, 00:15:04,VALID,997.974,VALID,0,VALID,87.4354,VALID,0,VALID,24.9093,VALID,132,VALID,1.10742,
2009-11-09, 00:16:04,VALID,998.011,VALID,0,VALID,87.5651,VALID,0,VALID,24.8917,VALID,131,VALID,1.03281,
2009-11-09, 00:17:04,VALID,997.992,VALID,0,VALID,87.6643,VALID,0,VALID,24.8527,VALID,131,VALID,0.810547,
2009-11-09, 00:18:04,VALID,997.996,VALID,0,VALID,87.7635,VALID,0,VALID,24.8117,VALID,127,VALID,0.683594,
2009-11-09, 00:19:04,VALID,998.007,VALID,0,VALID,87.7635,VALID,0,VALID,24.7922,VALID,110,VALID,0.882031,
2009-11-09, 00:20:04,VALID,997.976,VALID,0,VALID,88.0153,VALID,0,VALID,24.7746,VALID,102,VALID,0.949219,
2009-11-09, 00:21:04,VALID,997.981,VALID,0,VALID,88.1603,VALID,0,VALID,24.7142,VALID,102,VALID,0.801953,
2009-11-09, 00:22:04,VALID,997.954,VALID,0,VALID,88.2671,VALID,0,VALID,24.7356,VALID,134,VALID,0.869141,
2009-11-09, 00:23:04,VALID,997.941,VALID,0,VALID,88.4349,VALID,0,VALID,24.6946,VALID,152,VALID,1.14531,
2009-11-09, 00:24:04,VALID,997.939,VALID,0,VALID,88.4883,VALID,0,VALID,24.716,VALID,161,VALID,0.971094,
2009-11-09, 00:25:04,VALID,997.93,VALID,0,VALID,88.4426,VALID,0,VALID,24.7142,VALID,122,VALID,0.797656,
2009-11-09, 00:26:04,VALID,997.939,VALID,0,VALID,88.5341,VALID,0,VALID,24.7142,VALID,123,VALID,1.03086,
2009-11-09, 00:27:04,VALID,997.924,VALID,0,VALID,88.6409,VALID,0,VALID,24.6751,VALID,123,VALID,0.832812,
2009-11-09, 00:28:04,VALID,997.964,VALID,0,VALID,88.6486,VALID,0,VALID,24.6965,VALID,125,VALID,0.730078,
2009-11-09, 00:29:04,VALID,997.943,VALID,0,VALID,88.7477,VALID,0,VALID,24.6556,VALID,126,VALID,0.842188,
2009-11-09, 00:30:04,VALID,997.951,VALID,0,VALID,88.8927,VALID,0,VALID,24.6361,VALID,129,VALID,0.998438,
2009-11-09, 00:31:04,VALID,997.931,VALID,0,VALID,89.0987,VALID,0,VALID,24.638,VALID,132,VALID,1.20898,
2009-11-09, 00:32:04,VALID,997.893,VALID,0,VALID,89.1903,VALID,0,VALID,24.6184,VALID,128,VALID,0.914844,
2009-11-09, 00:33:04,VALID,997.854,VALID,0,VALID,89.1521,VALID,0,VALID,24.5971,VALID,120,VALID,0.735937,
2009-11-09, 00:34:04,VALID,997.863,VALID,0,VALID,89.1979,VALID,0,VALID,24.5989,VALID,120,VALID,0.579687,
2009-11-09, 00:35:04,VALID,997.863,VALID,0,VALID,89.1445,VALID,0,VALID,24.5971,VALID,120,VALID,0.270703,
2009-11-09, 00:36:04,VALID,997.87,VALID,0,VALID,89.0453,VALID,0,VALID,24.6184,VALID,120,VALID,0,
2009-11-09, 00:37:04,VALID,997.852,VALID,0,VALID,89.0758,VALID,0,VALID,24.5989,VALID,120,VALID,0.10625,
2009-11-09, 00:38:04,VALID,997.85,VALID,0,VALID,89.0987,VALID,0,VALID,24.5794,VALID,120,VALID,0.529688,
2009-11-09, 00:39:04,VALID,997.796,VALID,0,VALID,89.1826,VALID,0,VALID,24.5385,VALID,120,VALID,1.04727,
2009-11-09, 00:40:04,VALID,997.771,VALID,0,VALID,89.2666,VALID,0,VALID,24.5599,VALID,120,VALID,0.948828,
2009-11-09, 00:41:04,VALID,997.743,VALID,0,VALID,89.2971,VALID,0,VALID,24.5599,VALID,121,VALID,0.914063,
2009-11-09, 00:42:04,VALID,997.7,VALID,0,VALID,89.3963,VALID,0,VALID,24.5599,VALID,117,VALID,0.832812,
2009-11-09, 00:43:04,VALID,997.662,VALID,0,VALID,89.3963,VALID,0,VALID,24.519,VALID,114,VALID,0.710547,
2009-11-09, 00:44:04,VALID,997.619,VALID,0,VALID,89.3657,VALID,0,VALID,24.5404,VALID,110,VALID,0.638672,
2009-11-09, 00:45:04,VALID,997.565,VALID,0,VALID,89.2818,VALID,0,VALID,24.519,VALID,108,VALID,0.584766,
2009-11-09, 00:46:04,VALID,997.535,VALID,0,VALID,89.2055,VALID,0,VALID,24.519,VALID,92,VALID,0.833594,
2009-11-09, 00:47:04,VALID,997.541,VALID,0,VALID,88.9919,VALID,0,VALID,24.5385,VALID,85,VALID,0.951953,
2009-11-09, 00:48:04,VALID,997.546,VALID,0,VALID,89.0148,VALID,0,VALID,24.5385,VALID,83,VALID,1.04258,
2009-11-09, 00:49:04,VALID,997.527,VALID,0,VALID,89.2666,VALID,0,VALID,24.519,VALID,79,VALID,1.04844,
2009-11-09, 00:50:04,VALID,997.525,VALID,0,VALID,89.32,VALID,0,VALID,24.4995,VALID,64,VALID,0.811328,
2009-11-09, 00:51:04,VALID,997.525,VALID,0,VALID,89.3657,VALID,0,VALID,24.4818,VALID,62,VALID,0.558984,
2009-11-09, 00:52:04,VALID,997.473,VALID,0,VALID,89.5946,VALID,0,VALID,24.4428,VALID,62,VALID,0.689062,
2009-11-09, 00:53:04,VALID,997.438,VALID,0,VALID,89.8464,VALID,0,VALID,24.3824,VALID,51,VALID,0.639844,
2009-11-09, 00:54:04,VALID,997.43,VALID,0,VALID,89.8998,VALID,0,VALID,24.3433,VALID,25,VALID,0.601953,
2009-11-09, 00:55:04,VALID,997.411,VALID,0,VALID,90.0906,VALID,0,VALID,24.3043,VALID,7,VALID,0.560938,
2009-11-09, 00:56:04,VALID,997.379,VALID,0,VALID,90.2889,VALID,0,VALID,24.3062,VALID,1,VALID,0.769141,
2009-11-09, 00:57:04,VALID,997.35,VALID,0,VALID,90.3728,VALID,0,VALID,24.2848,VALID,333,VALID,0.510156,
2009-11-09, 00:58:04,VALID,997.363,VALID,0,VALID,90.4491,VALID,0,VALID,24.2671,VALID,333,VALID,0.414844,
2009-11-09, 00:59:04,VALID,997.364,VALID,0,VALID,90.4339,VALID,0,VALID,24.2458,VALID,333,VALID,0.434766,
2009-11-09, 01:00:04,VALID,997.381,VALID,0,VALID,90.266,VALID,0,VALID,24.2263,VALID,333,VALID,0.201562,
2009-11-09, 01:01:04,VALID,997.343,VALID,0,VALID,90.3042,VALID,0,VALID,24.1872,VALID,333,VALID,0,
2009-11-09, 01:02:04,VALID,997.357,VALID,0,VALID,90.3652,VALID,0,VALID,24.1677,VALID,333,VALID,0,
2009-11-09, 01:03:04,VALID,997.341,VALID,0,VALID,90.5788,VALID,0,VALID,24.1891,VALID,333,VALID,0,
2009-11-09, 01:04:04,VALID,997.325,VALID,0,VALID,90.762,VALID,0,VALID,24.1696,VALID,333,VALID,0,
2009-11-09, 01:05:04,VALID,997.338,VALID,0,VALID,90.8535,VALID,0,VALID,24.1891,VALID,333,VALID,0,
2009-11-09, 01:06:04,VALID,997.32,VALID,0,VALID,90.9527,VALID,0,VALID,24.1891,VALID,333,VALID,0.158984,
2009-11-09, 01:07:04,VALID,997.303,VALID,0,VALID,90.9298,VALID,0,VALID,24.1696,VALID,333,VALID,0,
2009-11-09, 01:08:04,VALID,997.328,VALID,0,VALID,90.9298,VALID,0,VALID,24.1482,VALID,333,VALID,0,
2009-11-09, 01:09:04,VALID,997.31,VALID,0,VALID,91.0137,VALID,0,VALID,24.1891,VALID,333,VALID,0,
2009-11-09, 01:10:04,VALID,997.285,VALID,0,VALID,91.0519,VALID,0,VALID,24.1891,VALID,333,VALID,0,
2009-11-09, 01:11:04,VALID,997.229,VALID,0,VALID,91.0748,VALID,0,VALID,24.1677,VALID,333,VALID,0,
2009-11-09, 01:12:04,VALID,997.218,VALID,0,VALID,91.0977,VALID,0,VALID,24.1696,VALID,333,VALID,0,
2009-11-09, 01:13:04,VALID,997.181,VALID,0,VALID,91.1358,VALID,0,VALID,24.1696,VALID,333,VALID,0,
2009-11-09, 01:14:04,VALID,997.179,VALID,0,VALID,91.2045,VALID,0,VALID,24.1677,VALID,333,VALID,0,
2009-11-09, 01:15:04,VALID,997.151,VALID,0,VALID,91.235,VALID,0,VALID,24.1677,VALID,333,VALID,0,
2009-11-09, 01:16:04,VALID,997.126,VALID,0,VALID,91.2579,VALID,0,VALID,24.1872,VALID,333,VALID,0,
2009-11-09, 01:17:04,VALID,997.119,VALID,0,VALID,91.2655,VALID,0,VALID,24.1872,VALID,333,VALID,0.391406,
2009-11-09, 01:18:04,VALID,997.135,VALID,0,VALID,91.1587,VALID,0.112286,VALID,24.2281,VALID,333,VALID,0.389062,
2009-11-09, 01:19:04,VALID,997.102,VALID,0,VALID,91.1587,VALID,0.112286,VALID,24.2263,VALID,44,VALID,0.846484,
2009-11-09, 01:20:04,VALID,997.057,VALID,0,VALID,91.0748,VALID,0,VALID,24.2458,VALID,135,VALID,0.645703,
2009-11-09, 01:21:04,VALID,997.021,VALID,0,VALID,91.029,VALID,0.112286,VALID,24.2653,VALID,119,VALID,0.517969,
2009-11-09, 01:22:04,VALID,997.016,VALID,0,VALID,90.9527,VALID,0,VALID,24.2866,VALID,119,VALID,0.3125,
2009-11-09, 01:23:04,VALID,996.982,VALID,0,VALID,90.8993,VALID,0,VALID,24.3062,VALID,119,VALID,0.384766,
2009-11-09, 01:24:04,VALID,996.954,VALID,0,VALID,90.9298,VALID,0,VALID,24.3257,VALID,119,VALID,0.379687,
2009-11-09, 01:25:04,VALID,996.938,VALID,0,VALID,90.8459,VALID,0,VALID,24.3257,VALID,119,VALID,0.241797,
2009-11-09, 01:26:04,VALID,996.919,VALID,0,VALID,90.8459,VALID,0.112286,VALID,24.3238,VALID,119,VALID,0.325,
2009-11-09, 01:27:04,VALID,996.888,VALID,0,VALID,90.9374,VALID,0,VALID,24.3452,VALID,119,VALID,0.484766,
2009-11-09, 01:28:04,VALID,996.93,VALID,0,VALID,91.0137,VALID,0,VALID,24.3238,VALID,98,VALID,0.715625,
2009-11-09, 01:29:04,VALID,996.884,VALID,0,VALID,90.968,VALID,0,VALID,24.3433,VALID,92,VALID,0.648047,
2009-11-09, 01:30:04,VALID,996.884,VALID,0,VALID,90.9451,VALID,0.112286,VALID,24.3433,VALID,97,VALID,0.378906,
2009-11-09, 01:31:04,VALID,996.909,VALID,0,VALID,90.8611,VALID,0,VALID,24.3647,VALID,97,VALID,0.283984,
2009-11-09, 01:32:04,VALID,996.872,VALID,0,VALID,90.8688,VALID,0.112286,VALID,24.3433,VALID,105,VALID,0.58125,
2009-11-09, 01:33:04,VALID,996.834,VALID,0,VALID,90.9146,VALID,0.112286,VALID,24.3238,VALID,120,VALID,0.787109,
2009-11-09, 01:34:04,VALID,996.856,VALID,0,VALID,90.9146,VALID,0,VALID,24.3238,VALID,111,VALID,0.811328,
2009-11-09, 01:35:04,VALID,996.821,VALID,0,VALID,90.9298,VALID,0.112286,VALID,24.3433,VALID,105,VALID,0.799219,
2009-11-09, 01:36:04,VALID,996.796,VALID,0,VALID,90.8459,VALID,0,VALID,24.3433,VALID,103,VALID,0.980078,
2009-11-09, 01:37:04,VALID,996.79,VALID,0,VALID,90.7391,VALID,0,VALID,24.3452,VALID,92,VALID,1.04023,
2009-11-09, 01:38:04,VALID,996.753,VALID,0,VALID,90.678,VALID,0.112286,VALID,24.3842,VALID,82,VALID,0.905859,
2009-11-09, 01:39:04,VALID,996.746,VALID,0,VALID,90.5865,VALID,0.112286,VALID,24.3433,VALID,87,VALID,0.727734,
2009-11-09, 01:40:04,VALID,996.711,VALID,0,VALID,90.556,VALID,0,VALID,24.3842,VALID,71,VALID,1.05625,
2009-11-09, 01:41:04,VALID,996.673,VALID,0,VALID,90.5026,VALID,0.112286,VALID,24.3824,VALID,106,VALID,0.389453,
2009-11-09, 01:42:04,VALID,996.61,VALID,0,VALID,90.3881,VALID,0,VALID,24.4019,VALID,106,VALID,0.201172,
2009-11-09, 01:43:04,VALID,996.583,VALID,0,VALID,90.3652,VALID,0,VALID,24.4019,VALID,101,VALID,0.571484,
2009-11-09, 01:44:04,VALID,996.56,VALID,0,VALID,90.2584,VALID,0.112286,VALID,24.4019,VALID,97,VALID,0.832422,
2009-11-09, 01:45:04,VALID,996.543,VALID,0,VALID,90.1592,VALID,0.112286,VALID,24.3824,VALID,84,VALID,0.392969,
2009-11-09, 01:46:04,VALID,996.48,VALID,0,VALID,89.9532,VALID,0,VALID,24.3824,VALID,73,VALID,0.529688,
2009-11-09, 01:47:04,VALID,996.493,VALID,0,VALID,89.8235,VALID,0.112286,VALID,24.3629,VALID,60,VALID,0.542188,
2009-11-09, 01:48:04,VALID,996.492,VALID,0,VALID,89.7396,VALID,0.112286,VALID,24.3433,VALID,59,VALID,0.44375,
2009-11-09, 01:49:04,VALID,996.458,VALID,0,VALID,89.7625,VALID,0.112286,VALID,24.3043,VALID,59,VALID,0.457031,
2009-11-09, 01:50:04,VALID,996.422,VALID,0,VALID,89.6938,VALID,0.112286,VALID,24.3043,VALID,56,VALID,0.830859,
2009-11-09, 01:51:04,VALID,996.439,VALID,0,VALID,89.4954,VALID,0,VALID,24.3257,VALID,43,VALID,0.863281,
2009-11-09, 01:52:04,VALID,996.422,VALID,0,VALID,89.32,VALID,0.112286,VALID,24.3043,VALID,50,VALID,0.910937,
2009-11-09, 01:53:04,VALID,996.441,VALID,0,VALID,89.175,VALID,0,VALID,24.3238,VALID,55,VALID,0.928906,
2009-11-09, 01:54:04,VALID,996.464,VALID,0,VALID,88.8546,VALID,0.112286,VALID,24.3647,VALID,55,VALID,1.0707,
2009-11-09, 01:55:04,VALID,996.435,VALID,0,VALID,88.6486,VALID,0,VALID,24.4037,VALID,57,VALID,1.06016,
2009-11-09, 01:56:04,VALID,996.461,VALID,0,VALID,88.5265,VALID,0,VALID,24.4428,VALID,57,VALID,0.6375,
2009-11-09, 01:57:04,VALID,996.468,VALID,0,VALID,88.4731,VALID,0,VALID,24.4623,VALID,57,VALID,0.498437,
2009-11-09, 01:58:04,VALID,996.451,VALID,0,VALID,88.4426,VALID,0,VALID,24.4623,VALID,57,VALID,0.106641,
2009-11-09, 01:59:04,VALID,996.501,VALID,0,VALID,88.4654,VALID,0,VALID,24.4428,VALID,57,VALID,0,
2009-11-09, 02:00:04,VALID,996.489,VALID,0,VALID,88.5417,VALID,0,VALID,24.4214,VALID,57,VALID,0,
2009-11-09, 02:01:04,VALID,996.48,VALID,0,VALID,88.6638,VALID,0,VALID,24.4037,VALID,57,VALID,0,
2009-11-09, 02:02:04,VALID,996.464,VALID,0,VALID,88.6714,VALID,0,VALID,24.3824,VALID,57,VALID,0,
2009-11-09, 02:03:04,VALID,996.457,VALID,0,VALID,88.702,VALID,0,VALID,24.4037,VALID,57,VALID,0.116406,
2009-11-09, 02:04:04,VALID,996.453,VALID,0,VALID,88.7172,VALID,0,VALID,24.4037,VALID,56,VALID,0,
2009-11-09, 02:05:04,VALID,996.464,VALID,0,VALID,88.824,VALID,0,VALID,24.4019,VALID,53,VALID,0,
2009-11-09, 02:06:04,VALID,996.475,VALID,0,VALID,88.9385,VALID,0.112286,VALID,24.3824,VALID,343,VALID,0,
2009-11-09, 02:07:04,VALID,996.457,VALID,0,VALID,89.0529,VALID,0,VALID,24.4037,VALID,339,VALID,0,
2009-11-09, 02:08:04,VALID,996.474,VALID,0,VALID,89.1674,VALID,0,VALID,24.3433,VALID,339,VALID,0,
2009-11-09, 02:09:04,VALID,996.477,VALID,0,VALID,89.1903,VALID,0,VALID,24.3433,VALID,339,VALID,0,
2009-11-09, 02:10:04,VALID,996.468,VALID,0,VALID,89.2132,VALID,0,VALID,24.3433,VALID,339,VALID,0.364062,
2009-11-09, 02:11:04,VALID,996.488,VALID,0,VALID,89.2132,VALID,0,VALID,24.3433,VALID,339,VALID,0.251563,
2009-11-09, 02:12:04,VALID,996.516,VALID,0,VALID,89.1979,VALID,0,VALID,24.3647,VALID,339,VALID,0.367578,
2009-11-09, 02:13:04,VALID,996.48,VALID,0,VALID,89.1521,VALID,0,VALID,24.3647,VALID,339,VALID,0.262109,
2009-11-09, 02:14:04,VALID,996.517,VALID,0,VALID,89.1521,VALID,0,VALID,24.3629,VALID,339,VALID,0.096875,
2009-11-09, 02:15:04,VALID,996.523,VALID,0,VALID,89.1674,VALID,0,VALID,24.3647,VALID,339,VALID,0,
2009-11-09, 02:16:04,VALID,996.516,VALID,0,VALID,89.2284,VALID,0,VALID,24.3647,VALID,339,VALID,0.332812,
2009-11-09, 02:17:04,VALID,996.508,VALID,0,VALID,89.1597,VALID,0,VALID,24.3452,VALID,339,VALID,0.427734,
2009-11-09, 02:18:04,VALID,996.496,VALID,0,VALID,89.1903,VALID,0,VALID,24.3043,VALID,339,VALID,0.36875,
2009-11-09, 02:19:04,VALID,996.506,VALID,0,VALID,89.2055,VALID,0,VALID,24.3043,VALID,339,VALID,0.301172,
2009-11-09, 02:20:04,VALID,996.522,VALID,0,VALID,89.32,VALID,0,VALID,24.3043,VALID,339,VALID,0.293359,
2009-11-09, 02:21:04,VALID,996.502,VALID,0,VALID,89.4115,VALID,0,VALID,24.2866,VALID,339,VALID,0.244531,
2009-11-09, 02:22:04,VALID,996.536,VALID,0,VALID,89.4649,VALID,0,VALID,24.2866,VALID,339,VALID,0.130859,
2009-11-09, 02:23:04,VALID,996.524,VALID,0,VALID,89.4878,VALID,0,VALID,24.2671,VALID,339,VALID,0.129297,
2009-11-09, 02:24:04,VALID,996.536,VALID,0,VALID,89.5183,VALID,0,VALID,24.2458,VALID,339,VALID,0.163672,
2009-11-09, 02:25:04,VALID,996.532,VALID,0,VALID,89.6251,VALID,0,VALID,24.2458,VALID,339,VALID,0.444922,
2009-11-09, 02:26:04,VALID,996.535,VALID,0,VALID,89.6862,VALID,0,VALID,24.2671,VALID,291,VALID,0.647656,
2009-11-09, 02:27:04,VALID,996.549,VALID,0,VALID,89.6328,VALID,0,VALID,24.2653,VALID,271,VALID,0.820703,
2009-11-09, 02:28:04,VALID,996.526,VALID,0,VALID,89.6328,VALID,0,VALID,24.3257,VALID,269,VALID,0.608203,
2009-11-09, 02:29:04,VALID,996.526,VALID,0,VALID,89.648,VALID,0,VALID,24.3043,VALID,253,VALID,0.683984,
2009-11-09, 02:30:04,VALID,996.484,VALID,0,VALID,89.5489,VALID,0,VALID,24.3238,VALID,252,VALID,0.723828,
2009-11-09, 02:31:04,VALID,996.476,VALID,0,VALID,89.4268,VALID,0,VALID,24.3629,VALID,248,VALID,0.328906,
2009-11-09, 02:32:04,VALID,996.456,VALID,0,VALID,89.3428,VALID,0,VALID,24.3629,VALID,229,VALID,0.400781,
2009-11-09, 02:33:04,VALID,996.472,VALID,0,VALID,89.3428,VALID,0,VALID,24.3629,VALID,223,VALID,0.378125,
2009-11-09, 02:34:04,VALID,996.467,VALID,0,VALID,89.3047,VALID,0,VALID,24.4037,VALID,223,VALID,0.462891,
2009-11-09, 02:35:04,VALID,996.471,VALID,0,VALID,89.2208,VALID,0,VALID,24.4019,VALID,223,VALID,0.634766,
2009-11-09, 02:36:04,VALID,996.494,VALID,0,VALID,89.0377,VALID,0,VALID,24.4214,VALID,221,VALID,0.564844,
2009-11-09, 02:37:04,VALID,996.501,VALID,0,VALID,88.824,VALID,0,VALID,24.4604,VALID,212,VALID,0.865234,
2009-11-09, 02:38:04,VALID,996.512,VALID,0,VALID,88.5875,VALID,0,VALID,24.5209,VALID,214,VALID,0.833203,
2009-11-09, 02:39:04,VALID,996.51,VALID,0,VALID,88.4197,VALID,0,VALID,24.5599,VALID,218,VALID,0.441406,
2009-11-09, 02:40:04,VALID,996.532,VALID,0,VALID,88.2442,VALID,0,VALID,24.558,VALID,218,VALID,0.39375,
2009-11-09, 02:41:04,VALID,996.563,VALID,0,VALID,88.1221,VALID,0,VALID,24.558,VALID,218,VALID,0.157422,
2009-11-09, 02:42:04,VALID,996.576,VALID,0,VALID,88.0306,VALID,0,VALID,24.558,VALID,212,VALID,0.390234,
2009-11-09, 02:43:04,VALID,996.557,VALID,0,VALID,87.9771,VALID,0,VALID,24.519,VALID,212,VALID,0.141406,
2009-11-09, 02:44:04,VALID,996.536,VALID,0,VALID,87.9237,VALID,0,VALID,24.519,VALID,212,VALID,0,
2009-11-09, 02:45:04,VALID,996.549,VALID,0,VALID,87.9619,VALID,0,VALID,24.4995,VALID,212,VALID,0.028125,
2009-11-09, 02:46:04,VALID,996.532,VALID,0,VALID,88.0077,VALID,0,VALID,24.48,VALID,212,VALID,0.0714844,
2009-11-09, 02:47:04,VALID,996.495,VALID,0,VALID,88.084,VALID,0,VALID,24.4995,VALID,212,VALID,0.266797,
2009-11-09, 02:48:04,VALID,996.497,VALID,0,VALID,88.0382,VALID,0,VALID,24.4604,VALID,212,VALID,0.232812,
2009-11-09, 02:49:04,VALID,996.481,VALID,0,VALID,87.9924,VALID,0,VALID,24.4623,VALID,212,VALID,0.152344,
2009-11-09, 02:50:04,VALID,996.466,VALID,0,VALID,88.0229,VALID,0,VALID,24.4623,VALID,212,VALID,0.416406,
2009-11-09, 02:51:04,VALID,996.49,VALID,0,VALID,88.0992,VALID,0,VALID,24.4428,VALID,131,VALID,0.5625,
2009-11-09, 02:52:04,VALID,996.465,VALID,0,VALID,88.0763,VALID,0,VALID,24.4214,VALID,85,VALID,0.674219,
2009-11-09, 02:53:04,VALID,996.469,VALID,0,VALID,88.1832,VALID,0,VALID,24.4037,VALID,48,VALID,0.685938,
2009-11-09, 02:54:04,VALID,996.476,VALID,0,VALID,88.4807,VALID,0,VALID,24.3257,VALID,31,VALID,1.07383,
2009-11-09, 02:55:04,VALID,996.463,VALID,0,VALID,88.9461,VALID,0,VALID,24.3043,VALID,31,VALID,0.985937,
2009-11-09, 02:56:04,VALID,996.495,VALID,0,VALID,88.908,VALID,0,VALID,24.2653,VALID,31,VALID,0.860156,
2009-11-09, 02:57:04,VALID,996.493,VALID,0,VALID,88.8851,VALID,0,VALID,24.2671,VALID,31,VALID,0.758203,
2009-11-09, 02:58:04,VALID,996.514,VALID,0,VALID,88.9919,VALID,0,VALID,24.2458,VALID,31,VALID,0.807031,
2009-11-09, 02:59:04,VALID,996.518,VALID,0,VALID,89.175,VALID,0,VALID,24.2263,VALID,31,VALID,0.640625,
2009-11-09, 03:00:04,VALID,996.519,VALID,0,VALID,89.2055,VALID,0,VALID,24.2263,VALID,31,VALID,0.584375,
2009-11-09, 03:01:04,VALID,996.493,VALID,0,VALID,89.2132,VALID,0,VALID,24.2067,VALID,31,VALID,0.602344,
2009-11-09, 03:02:04,VALID,996.492,VALID,0,VALID,89.2742,VALID,0,VALID,24.2263,VALID,31,VALID,0.570703,
2009-11-09, 03:03:04,VALID,996.467,VALID,0,VALID,89.2208,VALID,0,VALID,24.2067,VALID,31,VALID,0.367578,
2009-11-09, 03:04:04,VALID,996.439,VALID,0,VALID,89.0529,VALID,0,VALID,24.1891,VALID,31,VALID,0.383203,
2009-11-09, 03:05:04,VALID,996.444,VALID,0,VALID,89.0758,VALID,0,VALID,24.1287,VALID,31,VALID,0.380078,
2009-11-09, 03:06:04,VALID,996.435,VALID,0,VALID,89.2513,VALID,0,VALID,24.0897,VALID,31,VALID,0.211719,
2009-11-09, 03:07:04,VALID,996.416,VALID,0,VALID,89.5565,VALID,0,VALID,24.0897,VALID,31,VALID,0.0449219,
2009-11-09, 03:08:04,VALID,996.417,VALID,0,VALID,89.6938,VALID,0,VALID,24.0897,VALID,31,VALID,0,
2009-11-09, 03:09:04,VALID,996.383,VALID,0,VALID,89.7167,VALID,0,VALID,24.0897,VALID,31,VALID,0,
2009-11-09, 03:10:04,VALID,996.405,VALID,0,VALID,89.732,VALID,0,VALID,24.111,VALID,31,VALID,0,
2009-11-09, 03:11:04,VALID,996.4,VALID,0,VALID,89.8006,VALID,0,VALID,24.0701,VALID,31,VALID,0,
2009-11-09, 03:12:04,VALID,996.41,VALID,0,VALID,89.8922,VALID,0,VALID,24.0701,VALID,31,VALID,0,
2009-11-09, 03:13:04,VALID,996.393,VALID,0,VALID,89.8159,VALID,0,VALID,24.0311,VALID,31,VALID,0,
2009-11-09, 03:14:04,VALID,996.393,VALID,0,VALID,89.7854,VALID,0,VALID,24.0116,VALID,31,VALID,0,
2009-11-09, 03:15:04,VALID,996.393,VALID,0,VALID,89.999,VALID,0,VALID,24.0329,VALID,31,VALID,0.221875,
2009-11-09, 03:16:04,VALID,996.398,VALID,0,VALID,90.1668,VALID,0,VALID,23.9921,VALID,31,VALID,0.0738281,
2009-11-09, 03:17:04,VALID,996.404,VALID,0,VALID,90.2279,VALID,0,VALID,24.0116,VALID,31,VALID,0,
2009-11-09, 03:18:04,VALID,996.4,VALID,0,VALID,90.3576,VALID,0,VALID,24.0134,VALID,31,VALID,0.00078125,
2009-11-09, 03:19:04,VALID,996.385,VALID,0,VALID,90.4263,VALID,0,VALID,24.0311,VALID,31,VALID,0,
2009-11-09, 03:20:04,VALID,996.401,VALID,0,VALID,90.3881,VALID,0,VALID,24.072,VALID,31,VALID,0,
2009-11-09, 03:21:04,VALID,996.413,VALID,0,VALID,90.3347,VALID,0,VALID,24.0701,VALID,31,VALID,0,
2009-11-09, 03:22:04,VALID,996.392,VALID,0,VALID,90.1821,VALID,0,VALID,24.0915,VALID,31,VALID,0,
2009-11-09, 03:23:04,VALID,996.402,VALID,0,VALID,90.1897,VALID,0,VALID,24.0506,VALID,31,VALID,0,
2009-11-09, 03:24:04,VALID,996.403,VALID,0,VALID,90.205,VALID,0,VALID,24.0701,VALID,31,VALID,0.321094,
2009-11-09, 03:25:04,VALID,996.392,VALID,0,VALID,90.1821,VALID,0,VALID,24.0506,VALID,31,VALID,0.426562,
2009-11-09, 03:26:04,VALID,996.43,VALID,0,VALID,90.2813,VALID,0,VALID,24.0701,VALID,31,VALID,0.411719,
2009-11-09, 03:27:04,VALID,996.447,VALID,0,VALID,90.1287,VALID,0,VALID,24.0701,VALID,31,VALID,0.277344,
2009-11-09, 03:28:04,VALID,996.426,VALID,0,VALID,89.9074,VALID,0,VALID,24.0506,VALID,31,VALID,0.299219,
2009-11-09, 03:29:04,VALID,996.443,VALID,0,VALID,89.8769,VALID,0,VALID,24.0329,VALID,31,VALID,0.344141,
2009-11-09, 03:30:04,VALID,996.447,VALID,0,VALID,89.9303,VALID,0,VALID,24.0134,VALID,31,VALID,0.575781,
2009-11-09, 03:31:04,VALID,996.456,VALID,0,VALID,90.0753,VALID,0,VALID,23.9939,VALID,32,VALID,0.814062,
2009-11-09, 03:32:04,VALID,996.451,VALID,0,VALID,90.6246,VALID,0,VALID,23.9531,VALID,34,VALID,1.23633,
2009-11-09, 03:33:04,VALID,996.445,VALID,0,VALID,90.9756,VALID,0,VALID,23.9531,VALID,35,VALID,1.0375,
2009-11-09, 03:34:04,VALID,996.479,VALID,0,VALID,91.174,VALID,0,VALID,23.9317,VALID,30,VALID,0.882813,
2009-11-09, 03:35:04,VALID,996.501,VALID,0,VALID,91.2426,VALID,0,VALID,23.9336,VALID,29,VALID,0.578516,
2009-11-09, 03:36:04,VALID,996.515,VALID,0,VALID,91.2808,VALID,0,VALID,23.9354,VALID,29,VALID,0.495703,
2009-11-09, 03:37:04,VALID,996.538,VALID,0,VALID,91.3418,VALID,0,VALID,23.8945,VALID,29,VALID,0.364844,
2009-11-09, 03:38:04,VALID,996.527,VALID,0,VALID,91.38,VALID,0,VALID,23.8963,VALID,29,VALID,0.260156,
2009-11-09, 03:39:04,VALID,996.493,VALID,0,VALID,91.4486,VALID,0,VALID,23.8555,VALID,29,VALID,0.339063,
2009-11-09, 03:40:04,VALID,996.526,VALID,0,VALID,91.5478,VALID,0,VALID,23.8555,VALID,29,VALID,0.413281,
2009-11-09, 03:41:04,VALID,996.489,VALID,0,VALID,91.6546,VALID,0,VALID,23.8768,VALID,29,VALID,0.752734,
2009-11-09, 03:42:04,VALID,996.479,VALID,0,VALID,91.7767,VALID,0,VALID,23.875,VALID,30,VALID,0.978516,
2009-11-09, 03:43:04,VALID,996.481,VALID,0,VALID,91.7843,VALID,0,VALID,23.875,VALID,31,VALID,0.716016,
2009-11-09, 03:44:04,VALID,996.462,VALID,0,VALID,91.8377,VALID,0,VALID,23.8945,VALID,34,VALID,0.820313,
2009-11-09, 03:45:04,VALID,996.471,VALID,0,VALID,91.8606,VALID,0,VALID,23.9159,VALID,39,VALID,1.05625,
2009-11-09, 03:46:04,VALID,996.447,VALID,0,VALID,91.8759,VALID,0,VALID,23.9159,VALID,45,VALID,1.00312,